User: anonymous   Login
Location: Feydey
(46.3431°N, 7.0106°E)
Time: 10:58:03
(UTC+00:00)
Language:

SL-16 R/B - Orbit

View from above orbital plane
View from above orbital plane
View from above satellite
View from above satellite

Ground track
Ground track

The orbit data is extracted from the following two-line orbital elements,

1 28353U 04021B   21259.91351919  .00000194  00000-0  12652-3 0  9998
2 28353  70.9989  61.9875 0005485 340.1359  19.9549 14.14249718891677
Epoch (UTC): 16 September 2021 21:55:28
Eccentricity: 0.0005485
inclination: 70.9989°
perigee height: 841 km
apogee height: 849 km
right ascension of ascending node: 61.9875°
argument of perigee: 340.1359°
revolutions per day: 14.14249718
mean anomaly at epoch: 19.9549°
orbit number at epoch: 89167

The dashed part of the orbit path shows where the satellite is in the earth's shadow,  

DLR